Location: ???????
(60.4260°N, 46.9069°E)
Time: 09:11:02
(UTC+00:00)

PSLV R/B - Pass Details

Date: 30 March 2020
Orbit: 594 x 629 km, 97.9° (Epoch: 29 May)

Event Time Altitude Azimuth Distance (km) Brightness Sun altitude
Rises 01:33:13 0° 16° (NNE) 2,899 7.6 -6.7°
Reaches altitude 10° 01:35:24 10° 13° (NNE) 1,995 6.7 -6.4°
Maximum altitude 01:39:42 67° 293° (WNW) 681 3.6 -5.9°
Drops below altitude 10° 01:44:02 10° 210° (SSW) 2,000 5.7 -5.4°
Sets 01:46:14 0° 208° (SSW) 2,907 6.6 -5.2°
